Погода Ровно

Погода Ровно : погода сейчас, прогноз погоды и архив. Всё, что Вы хотите узнать о погоде Ровно!

Поиск расширенной информации на нашем сайте:

Другие новости

Новости СМИ2

Главная страница сайта

Новости сайта

03.07.2017

Напоминаем, что на нашем специализированном сайте Метеоцентр.Азия вы можете получить высокодетализированные автоматические прогнозы погоды по пунктам России, СНГ и мира в авиационном формате (включающие направление и скорость ветра, видимость, явления погоды, количество и форму облачности, нижнюю и верхнюю границу облачности).


Погода Ровно - сегодня

Время (UTC), дата Ветер
(°,м/с) 
Видим.   Явления Облачность Т
(°С)
Тd
(°С)
f(%) Тe
(°С)
Pmin
(гПа)
dP
(гПа)
Po
(мм)
O2
(г/м3)
Тmin Tmax R s Состояние
почвы
09 22.02.18 110 (В) 4000 м  слаб. снег  10/8 180 м средняя 
[Frnb|As op]
-3.2 -5.2 86 -4  1024.3  0.5  746  305           
12 22.02.18 110 (В) 10 км  {снег}  9/6 180 м средняя, верхняя 
[St|Ac trans|Ci fib]
-2.4 -6 76 -5  1024.1  -0.1  746  304      0.2     
15 22.02.18 120 (ЮВ) 20000 м    10/8 240 м средняя 
[Sc|Ac und]
-3.1 -6.9 75 -5  1024  -0.2  746  305           
21 22.02.18 080 (В) 10 км    10/6 960 м средняя 
[Sc|Ac und]
-6.2 -8.5 84 -8  1025.2  0.3  747  309           
00 23.02.18 040 (СВ) 4000 м  дымка  9/0 средняя 
[Ac und]
-10.6 -11.5 93 -12  1025.8  0.1  747  314           
03 23.02.18 тихо ()   2000 м  дымка  10/10 720 м 
[Sc]
-10.1 -10.7 95 -10  1024.7  -1  746  313           
06 23.02.18 тихо ()   4000 м  дымка  10/10 700 м 
[Sc]
-6.9 -7.4 96 -7  1024.7  0.4  746  309  -13.2      19  равномерный
сухой снег
100% 
09 23.02.18 120 (ЮВ) 20000 м    10/10 660 м 
[Sc]
-4.8 -8.4 76 -7  1024.7  0.2  746  307           
12 23.02.18 130 (ЮВ) 20000 м    10/8 570 м средняя 
[Sc|Ac und]
-4.8 -9.2 71 -6  1023.8  -0.9  746  307           
15 23.02.18 тихо ()   10 км  слаб. снег  10/8 210 м средняя 
[Frnb|As op]
-5.3 -9.9 70 -5  1022.9  -0.9  745  307           
18 23.02.18 320 (СЗ) 4000 м  слаб. снег  10/9 180 м средняя 
[Frnb|As op]
-8 -9 93 -8  1022.5  -0.7  744  310    -4.3  0.2     
21 23.02.18 350 (С) 4000 м  слаб. снег  10/9 180 м средняя 
[Frnb|As op]
-7.5 -8.1 95 -9  1022  -0.4  744  309           
00 24.02.18 350 (С) 10 км  слаб. снег  10/9 150 м средняя 
[Frnb|As op]
-9.1 -9.8 95 -13  1021.1  -1.1  743  311      0.4     
03 24.02.18 350 (С) 10 км  {снег}  10/8 150 м средняя 
[Sc|Ac und]
-9.9 -10.7 94 -13  1020.4  -0.7  743  312           
06 24.02.18 300 (СЗ) 4000 м  слаб. снег  10/8 150 м средняя 
[Frnb|As op]
-10.6 -11.5 93 -10  1020.7  0.2  743  313  -11.4    0.4  20  равномерный
сухой снег
100% 
12 24.02.18 350 (С) 10 км  {снег}  8/5 180 м средняя 
[Frnb|As op]
-7.9 -11.9 73 -12  1019.9  -0.3  743  309      0.0     
15 24.02.18 360 (С) 4000 м  слаб. снег  10/9 180 м средняя 
[Frnb|As op]
-9.7 -11.8 85 -14  1020.9  0.8  743  312           
21 24.02.18 350 (С) 1000 м  снег  10/9 150 м средняя 
[Frnb|As op]
-10.9 -12.2 90 -15  1023.3  745  314           
00 25.02.18 010 (С) 2000 м  слаб. снег  10/9 180 м средняя 
[Frnb|As op]
-12.4 -13.4 92 -17  1024.4  0.8  745  316      0.0     
03 25.02.18 030 (СВ) 2000 м  слаб. снег  10/9 100 м средняя 
[Frnb|As op]
-12.8 -14 91 -17  1024.8  0.4  746  317           
06 25.02.18 020 (С) 4000 м  в посл. час снег  10/10 240 м 
[St]
-15.1 -16.4 90 -19  1026.4  1.3  747  320  -15.8    0.2  20  равномерный
сухой снег
100% 
09 25.02.18 060 (СВ) 10 км  в посл. час снег  10/8 180 м средняя 
[Frnb|As op]
-11.7 -14.3 81 -16  1027.4  1.3  748  316           
15 25.02.18 020 (С) 10 км    9/0 средняя 
[As trans]
-10.5 -14.1 75 -10  1027.2  748  315           
21 25.02.18 010 (С) 10 км    ясно 
-16 -17.9 85 -18  1029.3  0.4  749  322           
00 26.02.18 тихо ()   2000 м  дымка  5/5 600 м 
[Sc]
-21.5 -23.1 87 -22  1030.2  0.2  749  329           
Время (UTC), дата Ветер
(°,м/с) 
Видим.   Явления Облачность Т
(°С)
Тd
(°С)
f(%) Тe
(°С)
Pmin
(гПа)
dP
(гПа)
Po
(мм)
O2
(г/м3)
Тmin Tmax R s Состояние
почвы

Для получения пояснительной информации подведите курсор к названию столбца.

ПОГОДА Ровно - архив

Всё, что Вы хотите узнать о погоде Ровно - удобно и подробно!

Выберите нужную дату (начиная с 1 января 2015* года) и нажмите кнопку "Найти".
Будут отображены архивные сводки погоды по пункту Ровно, начиная с указанной даты.


Отображать данные в формате CSV (для использования в таблицах Excel)


Внимание! Наш архив погоды предназначен исключительно для личного некоммерческого использования в познавательных целях. Если Вам необходимы официальные справки о состоянии погоды (для производственных, юридических, коммерческих и т.п. целей), обращайтесь в органы Росгидромета.

*Примечание: данная дата относится к архиву по метеостанциям СССР (Россия, СНГ, Балтия).
Архив по метеостанциям Зарубежной Европы и Азии (кроме Китая) хранится 10 дней, по другим регионам земного шара (Китай, Африка, Америка, Австралия, Океания) - 1 день.

Ровно - район местоположения метеостанции


Название, широта, долгота, высота метеостанции:
Ровно 50.6°ш. 26.1°д. 231 м над ур. моря [Украина]

Дополнительная информация

В oтличие oт бoльшинства пoгoдных сайтoв мы публикуем пoдрoбную метеoинфoрмацию в детальнoм прoфессиoнальнoм фoрмате.

Характеристики температуры и влажнoсти вoздуха измеряются на высoте 2 м в тени вдали oт зданий и деревьев.
Скoрoсть ветра измеряется на высoте 10 м (на урoвне рoста челoвека скoрoсть ветра ниже в 1.5-2 раза). Если метеoстанция нахoдится в гoрoде или в лесу, тo скoрoсть ветра занижена на 2-4 м/с пo сравнению с oткрытым местoм. Скoрoсть ветра над акватoриями крупных рек и oзёр, а также на вершинах хoлмoв на 2-5 м/с выше, чем в oбычных услoвиях.
Атмoсфернoе давление в разных тoчках местнoсти мoжет значительнo oтличаться oт давления на метеoстанции, в зависимoсти oт услoвий рельефа (при пoдъёме на 10 м давление пoнижается примернo на 1 мм рт.ст.).